ハーゲンローザー彗星

168P/Hergenrother (2005)

English version
Home page
Updated on July 30, 2012

---------------------------------------------------------------------

・ プロフィール

符号 168P/2005 N2
検出日 2005年7月4日
検出光度 20.3等
検出者 D. Herald, Kambah (near Canberra, A.C.T.)

・ 写真集

・ 軌道要素

Epoch 2005 Nov. 6.0 TT = JDT 2453680.5
T 2005 Nov. 2.46890 TT                                  MPC
q   1.4257822            (2000.0)            P               Q
n   0.14236259     Peri.   13.87138     +0.98259728     -0.18435098
a   3.6324986      Node   356.50305     +0.11382568     +0.69436126
e   0.6074927      Incl.   21.89371     +0.14678659     +0.69561279
P   6.92
From 264 observations 1998 Nov. 21-2012 July 29, mean residual 0".8.
     Nongravitational parameters A1 = +1.95, A2 = +0.2378.

・ 星図

・ 光度変化

        m1 = 15.5 + 5 logΔ + 10.0 log r

---------------------------------------------------------------------

軌道要素はM.P.E.C. 2012-O43に掲載されたものです。
星図は StellaNavigator Ver.2.0 for Windows (アストロアーツ 編著 / アスキー出版局刊) で作成したものです。
光度グラフはComet for Windowsで作成したものです。

---------------------------------------------------------------------

Copyright(C) Seiichi Yoshida (comet@aerith.net). All rights reserved.